Weather History for KXVG - January, 2013

Change the Weather History Date:

Saturday, January 26, 2013

  Actual Average (KPWC) Record (KPWC)
Temperature  
Mean Temperature -1 °F -  
Max Temperature 12 °F 19 °F 42 °F (2006)
Min Temperature -14 °F 2 °F -36 °F (1997)
Degree Days  
Heating Degree Days 66    
Moisture  
Dew Point -5 °F    
Average Humidity 74    
Maximum Humidity 85    
Minimum Humidity 57    
Precipitation  
Precipitation 0.00 in - - ()
Sea Level Pressure  
Sea Level Pressure 30.16 in    
Wind  
Wind Speed 3 mph (SE)    
Max Wind Speed 14 mph    
Max Gust Speed 18 mph    
Visibility 10 miles    
Events      
Averages and records for this station are not official NWS values.
T = Trace of Precipitation, MM = Missing Value Source: NWS Daily Summary

Daily Weather History Graph

Daily Weather History Graph

Search for Another Location

Airport or City:

Trip Planner

Search our weather history database for the weather conditions in past years. The results will help you decide how hot, cold, wet, or windy it might be!

Date:

Astronomy

Jan. 26, 2013 Rise Set
Actual Time 7:48 AM CST 5:11 PM CST
Civil Twilight 7:15 AM CST 5:44 PM CST
Nautical Twilight 6:38 AM CST 6:21 PM CST
Astronomical Twilight 6:02 AM CST 6:57 PM CST
Moon 5:09 PM CST (1/26) 7:04 AM CST (1/26)
Length of Visible Light 10h 28m
Length of Day
9h 22m
Full, 100% of the Moon is Illuminated
Jan 26
Full
Jan 26
Full
Feb 3
Last Quarter
Feb 10
New
Feb 17
First Quarter

Hourly Weather History & Observations

Time (CST) Temp. Windchill Dew Point Humidity Pressure Visibility Wind Dir Wind Speed Gust Speed Precip Events Conditions
12:16 AM -9.4 °F - -14.8 °F 77% 30.27 in 10.0 mi Calm Calm - N/A   Clear
12:36 AM -9.4 °F - -14.8 °F 77% 30.26 in 10.0 mi Calm Calm - N/A   Clear
12:56 AM -9.4 °F - -14.8 °F 77% 30.26 in 10.0 mi Calm Calm - N/A   Clear
1:16 AM -9.4 °F - -14.8 °F 77% 30.26 in 10.0 mi Calm Calm - N/A   Clear
1:36 AM -11.2 °F - -16.6 °F 77% 30.25 in 10.0 mi Calm Calm - N/A   Clear
1:56 AM -11.2 °F - -16.6 °F 77% 30.25 in 10.0 mi Calm Calm - N/A   Clear
2:16 AM -13.0 °F - -16.6 °F 84% 30.24 in 10.0 mi Calm Calm - N/A   Clear
2:36 AM -13.0 °F - -16.6 °F 84% 30.24 in 10.0 mi Calm Calm - N/A   Clear
2:56 AM -14.8 °F - -18.4 °F 84% 30.24 in 10.0 mi Calm Calm - N/A   Clear
3:16 AM -14.8 °F - -18.4 °F 84% 30.23 in 10.0 mi Calm Calm - N/A   Clear
3:36 AM -14.8 °F - -18.4 °F 84% 30.24 in 10.0 mi Calm Calm - N/A   Clear
3:56 AM -13.0 °F - -16.6 °F 84% 30.23 in 10.0 mi Calm Calm - N/A   Scattered Clouds
4:16 AM -9.4 °F - -14.8 °F 77% 30.23 in 10.0 mi Calm Calm - N/A   Mostly Cloudy
4:36 AM -9.4 °F - -13.0 °F 84% 30.23 in 10.0 mi Calm Calm - N/A   Overcast
4:56 AM -7.6 °F - -11.2 °F 84% 30.22 in 10.0 mi Calm Calm - N/A   Overcast
5:16 AM -7.6 °F - -11.2 °F 84% 30.23 in 10.0 mi Calm Calm - N/A   Mostly Cloudy
5:36 AM -9.4 °F - -13.0 °F 84% 30.23 in 10.0 mi Calm Calm - N/A   Scattered Clouds
5:56 AM -9.4 °F - -14.8 °F 77% 30.23 in 10.0 mi Calm Calm - N/A   Scattered Clouds
6:16 AM -7.6 °F - -11.2 °F 84% 30.25 in 10.0 mi Calm Calm - N/A   Scattered Clouds
6:36 AM -7.6 °F -16.5 °F -13.0 °F 77% 30.23 in 10.0 mi East 3.5 mph - N/A   Scattered Clouds
6:56 AM -7.6 °F - -11.2 °F 84% 30.24 in 10.0 mi Calm Calm - N/A   Scattered Clouds
7:16 AM -7.6 °F - -11.2 °F 84% 30.24 in 10.0 mi Calm Calm - N/A   Unknown
7:36 AM -5.8 °F -14.5 °F -9.4 °F 84% 30.23 in 10.0 mi ESE 3.5 mph - N/A   Mostly Cloudy
7:56 AM -4.0 °F -12.4 °F -9.4 °F 78% 30.23 in 10.0 mi ESE 3.5 mph - N/A   Overcast
8:16 AM -4.0 °F -12.4 °F -7.6 °F 85% 30.22 in 10.0 mi ESE 3.5 mph - N/A   Overcast
8:36 AM -2.2 °F - -7.6 °F 78% - 10.0 mi Calm Calm - N/A   Overcast
8:56 AM -2.2 °F - -5.8 °F 85% 30.23 in 10.0 mi Calm Calm - N/A   Overcast
9:16 AM -0.4 °F -10.4 °F -4.0 °F 85% 30.23 in 10.0 mi SSE 4.6 mph - N/A   Overcast
9:36 AM 1.4 °F -12.5 °F -2.2 °F 85% 30.22 in 10.0 mi SE 8.1 mph - N/A   Mostly Cloudy
9:56 AM 1.4 °F -13.5 °F -2.2 °F 85% 30.21 in 10.0 mi SE 9.2 mph - N/A   Mostly Cloudy
10:16 AM 3.2 °F -7.8 °F -2.2 °F 78% 30.23 in 10.0 mi SE 5.8 mph - N/A   Mostly Cloudy
10:56 AM 5.0 °F -6.9 °F -2.2 °F 72% 30.22 in 10.0 mi SSE 6.9 mph - N/A   Mostly Cloudy
11:16 AM 6.8 °F -5.9 °F -0.4 °F 72% 30.22 in 10.0 mi SE 8.1 mph - N/A   Scattered Clouds
11:36 AM 6.8 °F -2.0 °F -0.4 °F 72% 30.21 in 10.0 mi SSE 4.6 mph - N/A   Scattered Clouds
11:56 AM 6.8 °F -7.8 °F -0.4 °F 72% 30.20 in 10.0 mi SSE 10.4 mph - N/A   Scattered Clouds
12:16 PM 8.6 °F -1.3 °F -0.4 °F 67% 30.19 in 10.0 mi SSE 5.8 mph - N/A   Mostly Cloudy
12:36 PM 8.6 °F -4.7 °F -0.4 °F 67% 30.18 in 10.0 mi SE 9.2 mph - N/A   Overcast
12:56 PM 10.4 °F -3.3 °F -0.4 °F 62% 30.17 in 10.0 mi SSE 10.4 mph - N/A   Mostly Cloudy
1:16 PM 10.4 °F -3.3 °F -0.4 °F 62% 30.16 in 10.0 mi SE 10.4 mph - N/A   Mostly Cloudy
1:36 PM 10.4 °F -2.4 °F 1.4 °F 67% 30.15 in 10.0 mi SSE 9.2 mph - N/A   Overcast
1:56 PM 10.4 °F -3.3 °F -0.4 °F 62% 30.14 in 10.0 mi SE 10.4 mph 17.3 mph N/A   Overcast
2:16 PM 12.2 °F -3.1 °F -0.4 °F 57% 30.13 in 10.0 mi SSE 13.8 mph - N/A   Scattered Clouds
2:36 PM 12.2 °F -3.1 °F -0.4 °F 57% 30.13 in 10.0 mi SSE 13.8 mph 18.4 mph N/A   Scattered Clouds
2:56 PM 12.2 °F 1.7 °F 1.4 °F 62% 30.13 in 10.0 mi SE 6.9 mph - N/A   Scattered Clouds
3:36 PM 12.2 °F -1.0 °F 1.4 °F 62% 30.11 in 10.0 mi SE 10.4 mph - N/A   Clear
3:56 PM 12.2 °F -1.0 °F 1.4 °F 62% 30.11 in 10.0 mi SSE 10.4 mph - N/A   Clear
4:16 PM 12.2 °F -0.2 °F 1.4 °F 62% 30.10 in 10.0 mi SE 9.2 mph - N/A   Clear
4:36 PM 12.2 °F 0.7 °F 1.4 °F 62% 30.09 in 10.0 mi SE 8.1 mph - N/A   Clear
4:56 PM 12.2 °F -0.2 °F 1.4 °F 62% 30.09 in 10.0 mi SE 9.2 mph - N/A   Clear
5:16 PM 12.2 °F -0.2 °F 1.4 °F 62% 30.09 in 10.0 mi SE 9.2 mph - N/A   Clear
5:36 PM 10.4 °F -1.5 °F 1.4 °F 67% 30.09 in 10.0 mi SE 8.1 mph - N/A   Clear
5:56 PM 10.4 °F -3.3 °F 1.4 °F 67% 30.08 in 10.0 mi SE 10.4 mph - N/A   Clear
6:16 PM 10.4 °F -0.4 °F 1.4 °F 67% 30.08 in 10.0 mi SSE 6.9 mph - N/A   Clear
6:36 PM 10.4 °F -3.3 °F 1.4 °F 67% 30.08 in 10.0 mi SSE 10.4 mph - N/A   Clear
6:56 PM 12.2 °F 0.7 °F 1.4 °F 62% 30.07 in 10.0 mi SSE 8.1 mph - N/A   Clear
7:16 PM 12.2 °F 0.7 °F 1.4 °F 62% 30.08 in 10.0 mi SSE 8.1 mph - N/A   Clear
7:36 PM 12.2 °F -0.2 °F 3.2 °F 67% 30.08 in 10.0 mi SSE 9.2 mph - N/A   Clear
7:56 PM 12.2 °F -0.2 °F 3.2 °F 67% 30.08 in 10.0 mi SSE 9.2 mph - N/A   Clear
8:16 PM 12.2 °F -1.0 °F 3.2 °F 67% 30.08 in 10.0 mi SSE 10.4 mph - N/A   Clear
8:36 PM 10.4 °F 0.8 °F 3.2 °F 73% 30.08 in 10.0 mi SSE 5.8 mph - N/A   Clear
8:56 PM 10.4 °F 2.2 °F 3.2 °F 73% 30.08 in 10.0 mi SE 4.6 mph - N/A   Clear
9:16 PM 10.4 °F 2.2 °F 3.2 °F 73% 30.07 in 10.0 mi SE 4.6 mph - N/A   Clear
9:36 PM 10.4 °F 0.8 °F 3.2 °F 73% 30.07 in 10.0 mi SE 5.8 mph - N/A   Clear
9:56 PM 10.4 °F - 3.2 °F 73% 30.07 in 10.0 mi Calm Calm - N/A   Clear
10:16 PM 10.4 °F 4.0 °F 1.4 °F 67% 30.06 in 10.0 mi SE 3.5 mph - N/A   Clear
10:36 PM 8.6 °F 2.0 °F 1.4 °F 73% 30.05 in 10.0 mi SE 3.5 mph - N/A   Clear
10:56 PM 8.6 °F 0.1 °F 1.4 °F 73% 30.05 in 10.0 mi SE 4.6 mph - N/A   Clear
11:16 PM 8.6 °F 0.1 °F 3.2 °F 79% 30.05 in 10.0 mi SE 4.6 mph - N/A   Clear
11:36 PM 8.6 °F - 3.2 °F 79% 30.05 in 10.0 mi Calm Calm - N/A   Clear
11:56 PM 8.6 °F - 3.2 °F 79% 30.05 in 10.0 mi Calm Calm - N/A   Clear